Temp
-3 -3 -3 -3 -2 -3 -3 -2 -2 0 0 -0 -0 -0 1 2 5 6 6 6 6 5 5 5 5 5 5 4 4 5 5 5 6 6 5 5 5 5 5 5 5 5 5 4
-3 -3 -3 -3 -3 -3 -2 -3 -2 -2 -0 -0 -0 -0 0 1 4 5 5 5 4 4 5 5 5 5 5 5 5 5 5 5 5 5 5 5 5 5 5 5 5 5 5 5
-5 -3 -3 -3 -2 -2 -2 -1 -2 -1 -1 -1 -1 -1 0 2 3 3 4 4 4 4 4 4 4 4 4 5 5 5 5 5 5 5 5 5 5 5 5 5 4 5 5 4
-5 -3 -3 -2 -2 -2 -1 -1 -1 -1 -1 -1 -1 -1 0 1 2 3 3 4 4 4 4 4 4 3 3 4 4 5 5 5 5 5 5 5 5 5 5 5 5 4 4 4
-5 -4 -3 -1 -3 -2 -1 -2 -1 -1 -1 -1 -2 -1 -1 -1 1 2 2 2 3 3 3 3 3 3 3 4 4 4 4 4 4 4 4 4 4 4 4 4 4 4 4 4
-5 -5 -4 -3 -3 -2 -2 -2 -2 -1 -1 -2 -2 -1 -1 -1 -1 0 1 1 2 2 2 3 2 2 2 3 2 3 3 3 3 4 4 4 4 4 4 3 4 4 3 4
-5 -5 -3 -2 -3 -3 -2 -3 -3 -1 -1 -1 -2 -2 -2 -3 -1 -0 0 1 2 2 2 2 2 2 2 2 2 2 2 3 3 3 3 3 3 4 3 3 3 3 3 2
-6 -5 -4 -3 -3 -3 -3 -3 -3 -3 -3 -3 -3 -4 -3 -2 -1 -0 0 0 1 1 1 1 1 0 1 1 1 1 1 2 2 2 2 2 2 2 3 3 3 2 2 2
-4 -4 -4 -3 -3 -3 -3 -4 -4 -3 -3 -4 -4 -4 -3 -2 -2 -2 -1 -1 -0 0 0 0 0 0 0 1 1 1 1 1 1 1 1 1 1 1 1 1 1 1 1 1
-4 -5 -4 -4 -3 -3 -4 -5 -5 -5 -4 -4 -3 -2 -2 -2 -1 -1 -1 -1 -1 -0 0 0 0 0 -0 0 0 -0 -0 0 0 0 0 0 -0 -0 -0 -0 0 0 -0 -1
-5 -6 -5 -4 -5 -5 -5 -5 -5 -5 -5 -4 -3 -2 -2 -2 -2 -2 -2 -1 -1 -1 -1 -1 -1 -1 -1 -1 -1 -1 -1 -1 -1 -1 -1 -0 -1 -1 -2 -2 -1 -1 -1 -1
-5 -5 -6 -6 -6 -7 -5 -6 -5 -4 -4 -4 -3 -3 -3 -3 -3 -2 -2 -2 -2 -2 -2 -1 -1 -1 -1 -1 -1 -1 -1 -1 -1 -1 -1 -1 -1 -2 -3 -3 -2 -2 -2 -3
-6 -6 -6 -6 -5 -6 -6 -5 -4 -4 -4 -4 -4 -3 -3 -3 -3 -3 -3 -3 -3 -2 -2 -2 -2 -2 -2 -2 -2 -2 -2 -2 -2 -2 -3 -3 -3 -4 -4 -3 -3 -4 -4 -5
-6 -7 -7 -6 -6 -5 -5 -5 -5 -5 -4 -4 -4 -4 -4 -4 -4 -4 -4 -4 -4 -4 -4 -4 -4 -4 -3 -3 -3 -3 -3 -3 -3 -4 -4 -4 -5 -5 -6 -6 -7 -7 -7 -8
-7 -7 -6 -6 -6 -6 -5 -5 -5 -5 -5 -5 -5 -5 -5 -5 -4 -4 -4 -4 -5 -5 -5 -5 -5 -5 -5 -5 -5 -5 -5 -6 -6 -6 -7 -7 -7 -7 -8 -9 -9 -9 -10 -10
-7 -6 -6 -6 -6 -6 -5 -5 -5 -5 -5 -6 -6 -5 -5 -5 -6 -6 -6 -7 -7 -6 -6 -6 -7 -7 -7 -7 -7 -8 -8 -8 -8 -9 -9 -9 -9 -9 -10 -10 -11 -11 -11 -11
-8 -8 -8 -7 -6 -6 -6 -6 -6 -6 -6 -6 -6 -6 -6 -7 -7 -8 -8 -8 -8 -8 -8 -8 -9 -9 -9 -9 -10 -10 -10 -10 -10 -11 -11 -11 -11 -11 -12 -12 -12 -12 -12 -13
-7 -7 -7 -7 -7 -7 -7 -7 -7 -7 -7 -7 -7 -7 -8 -8 -8 -9 -9 -10 -10 -10 -11 -11 -11 -11 -11 -11 -12 -12 -12 -12 -12 -12 -12 -12 -12 -12 -12 -13 -13 -13 -13 -13
-7 -7 -7 -7 -7 -8 -8 -8 -9 -9 -9 -9 -9 -10 -10 -11 -11 -11 -12 -12 -12 -12 -13 -13 -13 -13 -13 -13 -13 -13 -13 -13 -13 -13 -13 -13 -13 -13 -13 -13 -13 -13 -14 -14
-8 -8 -8 -9 -9 -9 -10 -10 -10 -11 -11 -11 -12 -12 -12 -13 -13 -13 -14 -14 -14 -14 -14 -14 -14 -14 -14 -14 -14 -14 -14 -13 -13 -13 -14 -14 -14 -14 -14 -14 -15 -15 -15 -16
-9 -10 -10 -10 -11 -11 -11 -11 -11 -12 -12 -13 -13 -14 -14 -14 -14 -14 -14 -14 -14 -14 -14 -14 -15 -15 -15 -14 -14 -14 -14 -14 -14 -14 -15 -15 -15 -15 -16 -16 -16 -16 -16 -17
-11 -11 -11 -12 -12 -12 -12 -12 -13 -13 -13 -14 -14 -14 -15 -15 -15 -15 -15 -15 -15 -15 -15 -15 -15 -15 -15 -15 -15 -15 -15 -16 -16 -16 -16 -16 -17 -17 -17 -17 -17 -17 -18 -18
-12 -12 -13 -13 -13 -13 -14 -14 -14 -14 -14 -15 -15 -15 -15 -15 -15 -16 -16 -16 -16 -16 -16 -16 -16 -16 -16 -16 -17 -17 -17 -17 -17 -17 -17 -18 -18 -18 -18 -18 -18 -18 -18 -19
-13 -14 -14 -15 -15 -15 -15 -15 -16 -16 -16 -16 -16 -16 -16 -16 -16 -16 -16 -17 -17 -17 -17 -17 -17 -17 -18 -18 -18 -18 -18 -18 -18 -18 -18 -19 -19 -19 -19 -19 -19 -19 -19 -20
-14 -15 -15 -15 -16 -16 -16 -16 -17 -17 -17 -17 -17 -18 -17 -17 -17 -17 -18 -18 -18 -18 -18 -18 -19 -19 -19 -19 -19 -19 -19 -19 -19 -19 -19 -19 -19 -19 -19 -19 -20 -20 -20 -21
-15 -16 -16 -16 -16 -16 -17 -17 -17 -17 -18 -18 -18 -18 -19 -19 -19 -19 -19 -19 -19 -20 -20 -20 -20 -20 -20 -20 -20 -20 -20 -19 -19 -19 -19 -20 -20 -20 -20 -20 -21 -21 -21 -21
-15 -16 -17 -17 -18 -18 -18 -19 -19 -19 -19 -19 -19 -19 -19 -19 -20 -20 -20 -20 -20 -21 -21 -21 -21 -21 -20 -20 -20 -20 -20 -20 -20 -20 -20 -21 -21 -21 -21 -21 -21 -22 -22 -22
Height
2995 2993 2992 2989 2987 2987 2986 2985 2984 2985 2984 2986 2986 2991 2993 2994 2992 2990 2993 2995 2999 3003 3007 3009 3012 3014 3017 3019 3022 3024 3026 3029 3032 3034 3036 3037 3039 3040 3041 3042 3043 3044 3045 3046
2991 2989 2988 2983 2979 2977 2976 2975 2976 2980 2982 2982 2985 2986 2991 2993 2990 2990 2993 2995 2999 3002 3005 3008 3011 3013 3015 3017 3020 3020 3022 3023 3024 3027 3028 3030 3032 3033 3035 3037 3038 3039 3039 3040
2989 2986 2982 2977 2970 2966 2967 2967 2967 2968 2978 2977 2981 2979 2985 2988 2988 2993 2994 2995 2998 3001 3004 3007 3008 3010 3012 3014 3016 3018 3019 3018 3020 3022 3024 3025 3026 3026 3027 3028 3028 3030 3031 3032
2988 2985 2979 2970 2965 2963 2960 2956 2959 2966 2972 2976 2974 2976 2980 2986 2988 2991 2994 2997 2999 3001 3002 3005 3007 3007 3008 3009 3011 3012 3013 3014 3016 3016 3017 3018 3019 3020 3020 3020 3021 3021 3022 3022
2986 2984 2976 2965 2963 2961 2959 2957 2958 2962 2966 2972 2974 2975 2979 2985 2987 2990 2991 2992 2995 2999 3000 3001 3002 3003 3005 3006 3007 3007 3007 3007 3009 3010 3010 3011 3012 3012 3012 3012 3012 3013 3012 3013
2985 2983 2977 2965 2963 2960 2959 2957 2957 2960 2967 2968 2969 2973 2978 2982 2985 2986 2987 2991 2995 2995 2996 2997 2998 2999 2999 3001 3002 3002 3002 3001 3002 3003 3003 3004 3004 3004 3004 3003 3005 3004 3001 3002
2980 2980 2970 2966 2964 2960 2960 2966 2961 2963 2963 2967 2970 2973 2974 2978 2982 2985 2987 2990 2992 2993 2994 2994 2993 2993 2994 2995 2995 2995 2995 2995 2994 2995 2996 2996 2996 2996 2996 2995 2994 2994 2993 2992
2977 2977 2972 2965 2964 2963 2961 2960 2962 2964 2963 2966 2969 2972 2974 2979 2982 2983 2985 2987 2988 2990 2990 2989 2988 2989 2989 2989 2989 2988 2988 2988 2988 2988 2987 2987 2986 2986 2985 2985 2984 2983 2981 2980
2970 2971 2965 2963 2962 2962 2962 2963 2965 2968 2969 2970 2972 2974 2977 2980 2981 2982 2982 2983 2984 2984 2983 2983 2984 2984 2985 2984 2983 2983 2982 2982 2981 2980 2979 2978 2977 2976 2974 2973 2971 2970 2969 2968
2966 2964 2962 2963 2962 2963 2963 2963 2967 2970 2973 2975 2977 2977 2977 2978 2978 2978 2978 2978 2978 2978 2976 2977 2979 2979 2978 2978 2977 2976 2975 2974 2973 2972 2970 2969 2968 2966 2965 2964 2962 2959 2957 2955
2960 2963 2960 2962 2962 2961 2962 2966 2970 2971 2973 2974 2975 2974 2974 2975 2975 2974 2974 2975 2975 2975 2973 2972 2972 2972 2972 2971 2970 2969 2968 2966 2965 2963 2961 2960 2959 2957 2956 2954 2952 2949 2947 2945
2958 2961 2959 2961 2962 2962 2963 2967 2970 2971 2972 2971 2970 2971 2971 2972 2971 2971 2970 2970 2970 2970 2969 2968 2967 2966 2965 2964 2962 2961 2960 2958 2956 2955 2953 2952 2949 2948 2947 2945 2943 2941 2938 2935
2958 2961 2962 2961 2962 2965 2966 2967 2968 2969 2968 2968 2969 2969 2969 2969 2968 2967 2967 2966 2966 2965 2963 2962 2961 2960 2959 2957 2955 2953 2952 2950 2947 2945 2943 2942 2941 2939 2938 2936 2934 2932 2930 2927
2961 2962 2964 2964 2964 2964 2965 2966 2966 2966 2966 2966 2966 2965 2964 2963 2963 2963 2961 2960 2959 2958 2957 2955 2954 2952 2951 2950 2948 2946 2945 2943 2941 2940 2938 2936 2934 2932 2930 2928 2926 2924 2922 2921
2963 2963 2963 2963 2963 2963 2963 2962 2962 2962 2961 2961 2961 2960 2960 2958 2958 2957 2956 2955 2953 2952 2950 2948 2947 2945 2944 2944 2942 2940 2939 2937 2936 2934 2933 2931 2929 2927 2925 2924 2922 2920 2918 2917
2960 2961 2961 2961 2961 2960 2959 2959 2958 2958 2957 2956 2954 2952 2952 2951 2950 2950 2949 2947 2946 2944 2943 2941 2941 2939 2939 2937 2936 2935 2933 2931 2930 2928 2926 2925 2924 2922 2921 2919 2918 2916 2915 2913
2955 2954 2954 2956 2955 2955 2954 2954 2954 2953 2952 2950 2949 2948 2946 2945 2945 2944 2942 2941 2940 2938 2937 2936 2935 2934 2933 2932 2930 2929 2928 2927 2925 2923 2922 2921 2920 2918 2917 2916 2914 2912 2911 2909
2954 2952 2951 2950 2949 2948 2947 2947 2946 2945 2945 2945 2945 2944 2943 2942 2941 2939 2937 2936 2934 2933 2933 2932 2931 2930 2928 2927 2926 2925 2924 2922 2921 2920 2918 2917 2915 2914 2912 2911 2909 2907 2905 2903
2951 2950 2949 2948 2947 2946 2945 2944 2943 2942 2942 2941 2940 2939 2938 2937 2936 2934 2933 2931 2931 2930 2929 2928 2927 2926 2925 2924 2923 2922 2920 2919 2917 2916 2914 2912 2910 2908 2907 2905 2903 2901 2899 2897
2948 2948 2947 2946 2945 2944 2943 2942 2941 2940 2939 2937 2936 2935 2934 2933 2932 2931 2930 2929 2929 2927 2926 2925 2924 2923 2922 2921 2920 2918 2916 2915 2913 2910 2908 2906 2904 2902 2900 2898 2897 2895 2892 2890
2947 2946 2945 2944 2943 2942 2942 2941 2939 2938 2937 2936 2935 2934 2932 2931 2930 2929 2928 2927 2926 2924 2923 2922 2920 2919 2918 2916 2914 2912 2911 2909 2906 2904 2902 2900 2898 2896 2894 2892 2891 2889 2887 2885
2947 2946 2945 2945 2944 2943 2942 2941 2940 2939 2937 2936 2935 2933 2931 2930 2928 2927 2925 2924 2922 2920 2919 2917 2915 2913 2912 2910 2908 2906 2904 2902 2900 2898 2896 2894 2892 2890 2888 2886 2884 2882 2880 2878
2947 2947 2946 2946 2945 2943 2942 2941 2939 2937 2936 2934 2932 2930 2928 2926 2924 2923 2921 2919 2917 2915 2913 2912 2910 2908 2906 2904 2902 2900 2898 2896 2894 2892 2890 2888 2886 2884 2882 2880 2877 2875 2873 2870
2947 2946 2945 2944 2942 2941 2939 2938 2936 2934 2931 2929 2927 2926 2923 2921 2919 2917 2915 2913 2911 2909 2907 2905 2903 2902 2900 2898 2896 2894 2893 2891 2889 2887 2885 2883 2881 2879 2876 2874 2872 2869 2866 2863
2944 2943 2942 2940 2938 2937 2935 2933 2931 2929 2926 2924 2921 2918 2916 2915 2913 2911 2909 2906 2904 2902 2901 2899 2897 2895 2893 2892 2891 2889 2887 2886 2884 2882 2880 2878 2876 2873 2870 2867 2865 2862 2859 2856
2940 2938 2936 2934 2932 2930 2928 2926 2924 2921 2919 2917 2915 2912 2910 2907 2905 2903 2901 2900 2898 2896 2894 2893 2892 2891 2889 2887 2886 2885 2883 2880 2878 2876 2874 2871 2868 2865 2863 2860 2857 2854 2851 2848
2936 2934 2932 2929 2927 2924 2921 2919 2917 2915 2913 2911 2909 2906 2903 2901 2899 2897 2896 2894 2892 2891 2890 2888 2887 2885 2884 2883 2881 2879 2877 2875 2872 2869 2866 2863 2860 2857 2855 2852 2850 2847 2845 2842
Wind_Speed
12 17 20 26 27 25 29 26 14 20 20 13 20 2 13 17 17 19 20 20 24 25 22 19 17 15 12 10 8 7 11 17 17 17 17 18 17 17 17 19 19 19 20 21
14 8 11 20 28 31 31 29 29 34 20 16 11 21 5 11 13 15 19 20 17 17 12 12 19 15 14 12 10 10 10 12 14 15 16 18 20 23 24 24 25 25 26 27
7 18 25 20 13 18 26 26 26 36 38 30 14 21 18 11 17 16 17 20 19 15 10 5 6 6 10 16 19 19 19 19 18 17 17 16 17 17 19 22 27 29 30 32
13 19 4 5 14 13 10 12 16 24 20 20 27 23 25 22 15 20 19 15 17 16 14 15 15 15 16 18 17 18 17 19 22 24 25 25 25 23 24 24 22 22 26 31
6 9 21 16 11 2 8 10 25 25 19 32 28 27 24 15 18 13 11 11 13 16 14 14 12 15 18 20 21 22 24 26 29 27 28 29 29 30 30 31 30 27 26 27
9 5 4 10 19 6 10 4 16 21 21 25 28 27 22 14 7 5 6 5 4 4 7 10 15 20 25 28 20 18 17 20 23 25 26 28 27 26 28 29 34 33 31 34
24 12 13 19 25 9 2 9 16 20 22 25 19 19 17 10 4 0 1 4 7 8 9 13 14 13 13 15 18 21 23 25 29 31 30 32 35 35 34 35 38 40 40 37
21 13 12 10 12 4 11 19 13 11 18 16 9 10 10 4 2 4 7 8 9 11 10 10 9 9 9 10 12 14 14 17 21 25 30 33 31 33 37 42 44 43 43 43
15 13 17 14 14 6 4 4 12 7 8 5 7 4 3 3 4 5 8 10 12 12 12 12 13 13 14 15 16 16 18 19 19 19 20 19 21 25 29 33 34 36 41 45
15 11 17 12 18 12 12 19 16 12 8 5 2 1 3 7 9 11 11 11 13 14 14 14 15 15 15 16 17 18 19 20 21 23 25 26 28 28 29 28 27 29 32 35
19 17 26 20 19 17 19 12 8 6 2 2 3 4 7 8 10 11 11 12 12 13 14 14 15 17 17 19 21 22 24 25 26 27 29 30 32 33 32 32 31 29 29 30
12 8 19 19 12 12 9 7 3 2 1 2 4 6 8 9 9 10 10 12 13 13 14 15 16 18 20 21 23 25 27 28 29 29 29 31 31 30 30 30 29 28 27 27
17 12 12 11 8 7 6 3 2 3 4 4 5 6 7 9 11 13 14 16 17 18 19 19 19 20 21 22 23 24 26 28 30 30 31 30 28 27 27 28 28 28 28 28
7 6 7 4 2 3 3 2 3 4 7 8 9 9 11 12 14 15 17 19 20 21 21 21 22 22 23 23 23 24 24 24 25 25 26 27 28 28 28 26 24 22 21 19
2 3 4 4 6 7 7 8 8 10 12 14 14 14 16 17 19 20 21 21 21 21 22 23 23 23 23 23 22 21 21 20 21 22 23 23 23 21 20 19 17 16 15 14
8 9 9 10 9 8 9 10 12 15 16 17 18 19 20 20 20 20 19 19 20 21 21 21 22 22 21 21 21 21 22 21 20 19 18 18 18 18 17 16 15 15 15 14
12 13 13 10 10 12 13 15 17 17 18 17 19 20 19 19 18 18 19 19 20 20 19 19 19 19 19 19 19 17 17 17 17 16 15 15 15 14 14 14 14 15 16 17
13 14 16 16 17 18 17 16 16 16 16 17 17 17 17 17 16 16 16 16 17 16 16 16 16 16 16 15 14 14 13 12 13 14 14 15 16 17 17 18 19 20 21 21
11 11 12 12 13 13 14 15 14 13 13 13 13 13 13 12 12 12 12 13 13 13 12 12 12 12 12 12 13 14 14 14 14 15 16 17 19 20 21 22 23 23 22 22
9 9 9 8 8 9 9 9 10 10 10 10 10 10 10 10 10 10 10 10 10 11 11 12 13 14 14 14 15 16 17 18 18 19 19 19 20 20 21 21 21 21 21 21
7 6 6 6 7 7 8 8 9 9 9 8 8 8 8 8 9 10 11 13 13 14 15 15 16 16 17 17 18 18 19 19 19 20 20 20 21 21 20 20 20 20 19 19
3 4 5 5 6 6 7 7 8 8 8 9 10 11 13 14 15 15 15 16 16 17 17 17 18 18 19 19 19 19 19 19 19 19 19 19 18 19 20 20 21 20 21 21
2 2 3 4 6 7 8 9 11 12 13 14 15 16 17 17 18 18 18 19 19 19 19 19 20 20 20 19 19 18 18 18 17 17 17 18 19 19 20 21 22 22 22 23
3 5 6 8 10 12 13 14 15 16 17 18 18 18 19 20 21 20 21 21 21 21 21 20 20 19 18 18 17 16 15 15 16 16 17 18 19 21 22 23 23 24 25 25
9 11 12 13 14 16 17 18 17 18 18 19 19 21 21 21 21 22 21 20 21 21 21 19 19 18 17 15 14 15 16 16 16 18 20 21 22 23 24 25 26 26 27 27
13 16 18 20 21 22 22 22 22 22 21 21 21 21 21 21 21 21 21 21 19 18 18 18 17 15 15 15 15 15 16 18 20 22 22 23 23 24 25 25 24 24 23 23
18 19 19 20 21 22 22 22 22 22 22 21 21 21 22 21 21 20 18 17 17 17 16 16 16 16 16 15 16 18 19 21 23 23 23 23 23 22 21 20 20 20 20 20
Wind_Direction
297 296 278 282 281 273 278 261 223 242 243 253 253 132 106 115 138 149 168 173 186 196 198 201 197 194 193 182 171 176 211 236 241 244 249 253 255 255 252 253 250 247 248 248
306 333 316 270 271 276 270 261 260 237 231 215 247 237 153 129 141 144 141 152 165 185 199 223 224 222 217 211 205 231 235 213 225 235 246 253 254 256 258 260 261 260 260 258
285 317 315 285 281 280 265 264 248 228 230 236 203 181 169 151 173 167 166 158 162 164 175 208 229 239 243 246 245 247 249 260 261 255 248 248 255 260 261 262 260 259 260 260
293 323 262 297 298 257 256 215 226 211 210 228 167 151 181 179 169 186 196 181 196 208 212 220 230 247 265 277 275 268 264 266 263 264 266 268 269 272 266 264 270 273 274 268
259 271 299 303 322 201 202 73 184 203 171 153 126 144 139 164 188 189 150 163 205 232 230 229 235 241 250 252 257 265 267 267 267 264 263 264 267 268 272 273 273 277 281 281
241 270 256 303 319 337 219 66 135 163 163 163 153 150 130 129 142 126 121 148 201 234 243 261 264 259 255 256 257 252 257 263 272 272 275 271 267 266 265 268 269 271 276 275
229 248 266 284 300 307 183 126 159 185 207 190 188 157 138 118 119 161 310 249 254 269 263 258 256 262 264 267 266 265 264 264 261 268 275 274 269 267 268 271 276 277 278 274
225 236 257 273 277 347 150 134 77 105 114 114 90 68 74 105 143 296 310 316 308 301 281 272 265 259 269 274 275 275 272 267 265 265 266 268 271 273 273 271 270 269 269 271
207 229 267 285 257 124 63 317 123 115 114 78 79 71 358 309 308 302 300 296 295 293 296 284 276 271 272 274 274 275 277 280 281 280 280 280 280 280 277 271 270 268 266 265
187 141 182 194 163 198 208 137 118 124 125 134 148 243 279 289 296 301 301 299 297 294 290 289 284 282 283 283 283 284 287 288 289 292 292 292 293 293 294 293 291 285 285 279
174 150 142 158 151 121 124 121 127 135 122 231 239 293 299 294 294 296 296 294 291 290 290 289 291 293 295 295 295 294 294 293 294 294 296 294 291 291 290 290 291 289 288 287
143 133 121 119 112 102 88 101 68 91 243 314 312 302 294 294 298 300 301 302 305 306 304 302 299 298 298 298 299 298 297 296 294 293 292 296 295 290 286 284 281 281 283 285
109 86 80 77 73 54 83 80 40 358 340 320 302 299 293 287 293 297 297 299 301 305 308 307 306 307 306 305 305 305 304 302 301 299 298 299 299 295 289 285 284 281 281 282
101 99 52 49 350 321 328 324 310 298 293 294 300 306 307 306 303 301 300 301 302 304 306 305 304 303 303 303 302 302 301 301 301 302 301 301 302 302 300 300 300 298 298 299
335 334 353 325 302 290 286 288 289 291 289 291 294 298 300 299 296 295 296 297 299 300 301 301 299 298 297 295 293 291 290 290 291 293 296 297 296 295 295 295 296 298 299 297
312 320 325 322 317 303 297 294 291 288 289 291 297 301 300 298 296 293 292 293 294 295 295 295 294 294 293 292 293 294 293 292 292 291 290 289 288 288 290 292 296 299 299 299
314 313 314 314 308 304 300 299 295 290 289 292 295 294 294 293 292 291 291 290 290 291 291 291 291 291 291 291 291 290 291 291 291 290 289 288 287 288 290 294 294 294 294 295
312 309 309 308 308 310 311 311 310 309 305 300 296 294 292 291 291 290 292 294 294 294 294 294 294 294 293 292 292 291 290 291 291 292 291 292 293 296 298 299 299 298 296 293
315 312 312 312 312 312 312 312 312 310 307 304 302 299 298 298 299 299 299 297 295 294 295 297 295 294 294 293 293 291 292 293 293 292 293 293 293 293 292 291 292 293 294 294
324 323 324 326 327 328 329 328 328 329 331 330 331 330 328 324 323 321 319 313 310 307 303 298 295 295 295 297 300 301 300 299 298 297 297 295 294 293 292 292 293 294 295 296
329 339 352 5 17 19 18 11 9 10 7 4 358 353 344 334 324 318 308 304 304 301 299 299 300 301 301 300 299 297 296 296 297 297 297 296 296 296 296 294 294 294 295 294
24 46 45 32 21 15 6 358 350 340 332 326 320 315 310 307 305 303 302 301 300 298 296 295 294 293 292 292 292 293 295 295 295 296 296 296 297 297 297 298 298 299 299 297
84 34 355 340 333 327 323 317 312 309 306 304 303 302 300 299 298 298 296 295 294 294 293 292 291 291 290 291 292 293 293 294 296 297 299 301 301 302 302 303 304 304 302 301
318 319 320 321 320 319 316 313 311 308 305 301 298 295 294 294 294 294 293 293 292 290 289 289 288 288 289 290 290 289 291 294 298 300 302 303 303 303 303 303 302 302 302 302
322 320 317 315 310 307 308 309 307 304 300 297 298 299 297 294 292 292 290 290 289 289 288 288 288 289 288 285 287 292 295 297 299 302 302 303 303 301 300 300 301 301 300 300
318 319 319 317 314 310 308 307 306 303 301 300 300 298 296 297 297 295 295 294 293 290 290 289 287 283 283 286 289 292 297 300 302 303 303 302 301 300 301 302 303 304 305 307
317 313 312 309 306 307 308 307 306 305 305 305 302 299 299 300 300 297 294 291 288 287 287 286 286 286 287 291 294 297 301 303 304 305 306 305 306 307 307 308 309 311 313 312